When you browse on this site, cookies collect data to enhance your experience and personalize the content and advertising you see.
Visit our Privacy Policy to learn more. By continuing to use the site, you agree to this use of cookies and data.
  • en France
  • Liste des pays
  • À 7 jours
  • Température de l'eau
  • Carte satellitaire
  • Carte météo
  • Widgets météo
  • user-avatar
    Se connecter

    Météo par heure à Kardjali

    Ce jour, 25 Mai, Samedi

    Heure Température Précipitation Vent Pression Humidité
    00:00 +14°C° 0 mm 1 m/s 723 mmHg 86%
    01:00 +13°C° 0 mm 1 m/s 723 mmHg 86%
    02:00 +13°C° 0 mm 1 m/s 723 mmHg 87%
    03:00 +12°C° 0 mm 1 m/s 723 mmHg 87%
    04:00 +12°C° 0 mm 1 m/s 723 mmHg 87%
    05:00 +12°C° 0 mm 1 m/s 724 mmHg 87%
    06:00 +14°C° 0 mm 1 m/s 724 mmHg 81%
    07:00 +16°C° 0 mm 1 m/s 724 mmHg 76%
    08:00 +19°C° 0 mm 1 m/s 725 mmHg 70%
    09:00 +20°C° 0.1 mm 1 m/s 725 mmHg 65%
    10:00 +21°C° 0.1 mm 1 m/s 725 mmHg 61%
    11:00 +23°C° 0.1 mm 1 m/s 725 mmHg 56%
    12:00 +23°C° 0.8 mm 1 m/s 725 mmHg 57%
    13:00 +23°C° 0.8 mm 2 m/s 725 mmHg 58%
    14:00 +23°C° 0.8 mm 2 m/s 725 mmHg 59%
    15:00 +23°C° 1.3 mm 2 m/s 725 mmHg 62%
    16:00 +23°C° 1.3 mm 2 m/s 725 mmHg 64%
    17:00 +21°C° 1.3 mm 2 m/s 725 mmHg 67%
    18:00 +20°C° 0.2 mm 2 m/s 725 mmHg 72%
    19:00 +18°C° 0.2 mm 2 m/s 725 mmHg 78%
    20:00 +16°C° 0.2 mm 2 m/s 725 mmHg 84%
    21:00 +16°C° 0 mm 2 m/s 725 mmHg 84%
    22:00 +15°C° 0 mm 1 m/s 726 mmHg 84%
    23:00 +15°C° 0 mm 1 m/s 726 mmHg 84%

    Demain, 26 Mai, Dimanche

    Heure Température Précipitation Vent Pression Humidité
    00:00 +14°C° 0 mm 1 m/s 726 mmHg 83%
    01:00 +14°C° 0 mm 1 m/s 726 mmHg 83%
    02:00 +14°C° 0 mm 1 m/s 726 mmHg 82%
    03:00 +14°C° 0 mm 1 m/s 726 mmHg 81%
    04:00 +14°C° 0 mm 1 m/s 726 mmHg 81%
    05:00 +14°C° 0 mm 1 m/s 726 mmHg 80%
    06:00 +16°C° 0 mm 1 m/s 727 mmHg 75%
    07:00 +17°C° 0 mm 0 m/s 727 mmHg 69%
    08:00 +19°C° 0 mm 0 m/s 727 mmHg 64%
    09:00 +22°C° 0 mm 1 m/s 728 mmHg 60%
    10:00 +23°C° 0 mm 1 m/s 728 mmHg 57%
    11:00 +25°C° 0 mm 2 m/s 728 mmHg 54%
    12:00 +25°C° 0 mm 2 m/s 728 mmHg 54%
    13:00 +26°C° 0 mm 2 m/s 728 mmHg 53%
    14:00 +26°C° 0 mm 3 m/s 728 mmHg 53%
    15:00 +26°C° 0.1 mm 3 m/s 728 mmHg 56%
    16:00 +25°C° 0.1 mm 3 m/s 727 mmHg 59%
    17:00 +25°C° 0.1 mm 3 m/s 727 mmHg 61%
    18:00 +22°C° 0 mm 3 m/s 727 mmHg 68%
    19:00 +20°C° 0 mm 2 m/s 727 mmHg 75%
    20:00 +18°C° 0 mm 2 m/s 727 mmHg 82%
    21:00 +17°C° 0 mm 2 m/s 727 mmHg 82%
    22:00 +18°C° 0 mm 1 m/s 727 mmHg 82%
    23:00 +16°C° 0 mm 1 m/s 727 mmHg 83%

    Après-demain, 27 Mai, Lundi

    Heure Température Précipitation Vent Pression Humidité
    00:00 +16°C° 0 mm 1 m/s 727 mmHg 82%
    01:00 +15°C° 0 mm 1 m/s 727 mmHg 82%
    02:00 +15°C° 0 mm 1 m/s 727 mmHg 81%
    03:00 +15°C° 0 mm 1 m/s 727 mmHg 81%
    04:00 +15°C° 0 mm 1 m/s 727 mmHg 81%
    05:00 +14°C° 0 mm 1 m/s 727 mmHg 80%
    06:00 +18°C° 0 mm 1 m/s 727 mmHg 73%
    07:00 +18°C° 0 mm 0 m/s 727 mmHg 66%
    08:00 +20°C° 0 mm 0 m/s 728 mmHg 59%
    09:00 +23°C° 0 mm 1 m/s 728 mmHg 56%
    10:00 +25°C° 0 mm 2 m/s 728 mmHg 53%
    11:00 +26°C° 0 mm 2 m/s 728 mmHg 50%
    12:00 +27°C° 0 mm 3 m/s 728 mmHg 49%
    13:00 +27°C° 0 mm 3 m/s 727 mmHg 48%
    14:00 +28°C° 0 mm 3 m/s 727 mmHg 47%
    15:00 +27°C° 0 mm 3 m/s 727 mmHg 50%
    16:00 +27°C° 0 mm 3 m/s 727 mmHg 52%
    17:00 +27°C° 0 mm 3 m/s 726 mmHg 54%
    18:00 +25°C° 0 mm 3 m/s 726 mmHg 59%
    19:00 +23°C° 0 mm 2 m/s 726 mmHg 65%
    20:00 +20°C° 0 mm 2 m/s 726 mmHg 70%
    21:00 +19°C° 0 mm 2 m/s 726 mmHg 71%
    22:00 +19°C° 0 mm 2 m/s 726 mmHg 72%
    23:00 +18°C° 0 mm 2 m/s 725 mmHg 73%

    28 Mai, Mardi

    Heure Température Précipitation Vent Pression Humidité
    00:00 +17°C° 0 mm 2 m/s 725 mmHg 73%
    01:00 +18°C° 0 mm 1 m/s 725 mmHg 72%
    02:00 +16°C° 0 mm 1 m/s 725 mmHg 71%
    03:00 +16°C° 0 mm 1 m/s 725 mmHg 70%
    04:00 +16°C° 0 mm 1 m/s 725 mmHg 69%
    05:00 +16°C° 0 mm 1 m/s 724 mmHg 68%
    06:00 +19°C° 0 mm 1 m/s 725 mmHg 65%
    07:00 +20°C° 0 mm 2 m/s 725 mmHg 62%
    08:00 +23°C° 0 mm 2 m/s 725 mmHg 60%
    09:00 +25°C° 0 mm 3 m/s 725 mmHg 55%
    10:00 +26°C° 0 mm 4 m/s 725 mmHg 51%
    11:00 +27°C° 0 mm 5 m/s 725 mmHg 47%
    12:00 +27°C° 0 mm 6 m/s 725 mmHg 46%
    13:00 +27°C° 0 mm 6 m/s 724 mmHg 45%
    14:00 +27°C° 0 mm 7 m/s 724 mmHg 44%
    15:00 +27°C° 0 mm 6 m/s 724 mmHg 47%
    16:00 +26°C° 0 mm 6 m/s 723 mmHg 49%
    17:00 +25°C° 0 mm 5 m/s 723 mmHg 52%
    18:00 +22°C° 0 mm 5 m/s 723 mmHg 61%
    19:00 +20°C° 0 mm 4 m/s 723 mmHg 70%
    20:00 +17°C° 0 mm 3 m/s 723 mmHg 79%
    21:00 +17°C° 0 mm 3 m/s 723 mmHg 81%
    22:00 +16°C° 0 mm 3 m/s 723 mmHg 82%
    23:00 +16°C° 0 mm 3 m/s 723 mmHg 83%

    29 Mai, Mercredi

    Heure Température Précipitation Vent Pression Humidité
    00:00 +16°C° 0 mm 3 m/s 723 mmHg 83%
    01:00 +16°C° 0 mm 3 m/s 723 mmHg 82%
    02:00 +14°C° 0 mm 3 m/s 723 mmHg 81%
    03:00 +15°C° 0 mm 2 m/s 723 mmHg 81%
    04:00 +15°C° 0 mm 2 m/s 723 mmHg 81%
    05:00 +15°C° 0 mm 2 m/s 723 mmHg 80%
    06:00 +17°C° 0 mm 2 m/s 724 mmHg 75%
    07:00 +19°C° 0 mm 2 m/s 724 mmHg 70%
    08:00 +21°C° 0 mm 2 m/s 725 mmHg 64%
    09:00 +24°C° 0 mm 2 m/s 725 mmHg 60%
    10:00 +25°C° 0 mm 2 m/s 725 mmHg 56%
    11:00 +26°C° 0 mm 2 m/s 725 mmHg 52%
    12:00 +27°C° 0 mm 2 m/s 725 mmHg 52%
    13:00 +27°C° 0 mm 3 m/s 725 mmHg 52%
    14:00 +28°C° 0 mm 3 m/s 725 mmHg 52%
    15:00 +27°C° 0 mm 3 m/s 725 mmHg 55%
    16:00 +27°C° 0 mm 3 m/s 725 mmHg 57%
    17:00 +27°C° 0 mm 3 m/s 725 mmHg 60%
    18:00 +25°C° 0 mm 3 m/s 725 mmHg 68%
    19:00 +23°C° 0 mm 2 m/s 725 mmHg 76%
    20:00 +19°C° 0 mm 2 m/s 725 mmHg 84%
    21:00 +19°C° 0 mm 2 m/s 725 mmHg 84%
    22:00 +18°C° 0 mm 2 m/s 726 mmHg 84%
    23:00 +19°C° 0 mm 1 m/s 726 mmHg 84%

    30 Mai, Jeudi

    Heure Température Précipitation Vent Pression Humidité
    00:00 +19°C° 0 mm 1 m/s 726 mmHg 83%
    01:00 +19°C° 0 mm 1 m/s 726 mmHg 82%
    02:00 +19°C° 0 mm 1 m/s 726 mmHg 81%
    03:00 +19°C° 0 mm 1 m/s 726 mmHg 80%
    04:00 +18°C° 0 mm 1 m/s 726 mmHg 80%
    05:00 +18°C° 0 mm 1 m/s 726 mmHg 80%
    06:00 +19°C° 0 mm 2 m/s 726 mmHg 73%
    07:00 +21°C° 0 mm 2 m/s 727 mmHg 66%
    08:00 +24°C° 0 mm 2 m/s 727 mmHg 59%
    09:00 +26°C° 0 mm 2 m/s 727 mmHg 56%
    10:00 +27°C° 0 mm 2 m/s 727 mmHg 54%
    11:00 +28°C° 0 mm 3 m/s 727 mmHg 51%
    12:00 +28°C° 0.4 mm 2 m/s 727 mmHg 51%
    13:00 +28°C° 0.4 mm 2 m/s 727 mmHg 51%
    14:00 +29°C° 0.4 mm 1 m/s 727 mmHg 51%
    15:00 +28°C° 1.5 mm 1 m/s 726 mmHg 54%
    16:00 +27°C° 1.5 mm 1 m/s 726 mmHg 58%
    17:00 +27°C° 1.5 mm 1 m/s 726 mmHg 61%
    18:00 +25°C° 0.4 mm 1 m/s 726 mmHg 66%
    19:00 +23°C° 0.4 mm 1 m/s 726 mmHg 71%
    20:00 +22°C° 0.4 mm 1 m/s 725 mmHg 75%
    21:00 +21°C° 0 mm 1 m/s 725 mmHg 77%
    22:00 +20°C° 0 mm 1 m/s 725 mmHg 78%
    23:00 +20°C° 0 mm 1 m/s 725 mmHg 79%
    Voir plus